Home > Weather > Parma > Past weeks

Flag for Italy Past Weather in Parma, Italy — Yesterday and Last 2 Weeks

Now
82 °F

Sunny.


Feels Like: 82 °F
Forecast: 64 / 88 °F
Wind: 3 mph from North

Location: Parma

Current Time: Jun 28, 2016 at 8:49:34 PM

Latest Report: Jun 28, 2016 at 7:50 PM


Visibility: 10 mi

Pressure: 29.95 "Hg

Humidity: 42%

Dew Point: 57 °F

Location of ParmaLocation

Past Weather in Parma — Graph

°F

Parma Temperature Yesterday

Maximum temperature yesterday: 84 °F (at 4:50 PM)
Minimum temperature yesterday: 66 °F (at 7:00 AM)
Average temperature yesterday: 78 °F

High & Low Weather Summary for the Past Weeks

 TemperatureHumidityPressure
High93 °F (Jun 25, 2:50 PM)88% (Jun 14, 7:00 AM)30.24 "Hg (Jun 14, 7:00 AM)
Low57 °F (Jun 15, 7:00 AM)30% (Jun 25, 5:50 PM)29.50 "Hg (Jun 14, 7:50 PM)
Average76 °F55%29.93 "Hg
* Reported Jun 13 6:50 PM — Jun 28 6:50 PM, Parma, Weather by CustomWeather, © 2016

Note: Actual official high and low records may vary slightly from our data, if they occured in-between our weather recording intervals... More about our weather records

Advertising

Parma Weather History for the Previous 24 Hours

Scroll right to see more
 ConditionsComfort  
Time TempWeatherWind HumidityBarometerVisibility
6:50 PM
Tue, Jun 28
84 °FSunny.7 mph37%29.95 "Hg10 mi
5:50 PM86 °FSunny.9 mph38%29.98 "Hg10 mi
4:50 PM86 °FSunny.9 mph33%29.98 "Hg10 mi
3:50 PM86 °FSunny.6 mph35%30.01 "Hg10 mi
2:50 PM84 °FPassing clouds.3 mph40%30.01 "HgN/A
1:50 PM84 °FSunny.5 mph37%30.04 "Hg10 mi
12:50 PM82 °FSunny.7 mph45%30.04 "Hg10 mi
11:50 AM81 °FSunny.8 mph51%30.07 "Hg10 mi
10:50 AM79 °FSunny.6 mph54%30.07 "Hg10 mi
9:50 AM75 °FSunny.3 mph65%30.07 "Hg10 mi
8:50 AM72 °FClear.1 mph73%30.09 "Hg5 mi
7:50 AM68 °FClear.2 mph73%30.09 "Hg5 mi
7:00 AM64 °FClear.1 mph83%30.07 "Hg5 mi
10:50 PM
Mon, Jun 27
73 °FClear.6 mph65%30.01 "Hg10 mi
9:50 PM77 °FSunny.9 mph61%29.98 "Hg10 mi
8:50 PM79 °FPassing clouds.7 mph58%29.95 "HgN/A
Weather by CustomWeather, © 2016

See weather overviewHow to use our weather pages